STARLINK T

Last updated on June 19, 2020, 12:02 a.m. UTC

1 45747U 20038T   20170.83334491  .03258650  10125-1  70737-2 0  9990
2 45747  53.0014 271.4348 0099060  67.3811 254.4033 15.91355714  1969

Satellite is not in orbit.